weather.gov     
National Weather Service

Regional Weather Roundup
NWS Homepage
This page is being discontinued on March 12, 2014.
The same data is available at this site. Please update your bookmarks.
Thank you, and we apologize for the inconvenience.
Please send an email to SR-SRH.Webmaster@noaa.gov with any concerns.


Current Version
Previous Version:    01  02  03  04  05  06  07  08  09  10  11  12  13  14  15  16  17  18  
[Printable]
018
ASUS44 KBMX 191110
RWRAL

ALABAMA REGIONAL WEATHER ROUNDUP
NATIONAL WEATHER SERVICE BIRMINGHAM AL
600 AM CDT FRI SEP 19 2014

NOTE: "FAIR" INDICATES FEW OR NO CLOUDS BELOW 12,000 FEET
WITH NO SIGNIFICANT WEATHER AND/OR OBSTRUCTIONS TO VISIBILITY.

THE REMARK "TC" DENOTES TEMPERATURE IN DEGREES CELSIUS.

ALZ001>011-014-016>018-020-191200-
NORTH ALABAMA

CITY           SKY/WX    TMP DP  RH WIND       PRES   REMARKS
MUSCLE SHOALS  CLEAR     63  61  93 CALM      30.01S FOG
HUNTSVILLE     PTCLDY    66  61  84 NE3       30.01R
DECATUR        CLEAR     62  60  93 CALM      30.02R
HALEYVILLE     FAIR      64  64 100 CALM      30.03R FOG
GADSDEN        PTCLDY    64  57  77 CALM      30.02R
$$

ALZ012-013-022-023-030>036-040>044-191200-
WEST CENTRAL ALABAMA

CITY           SKY/WX    TMP DP  RH WIND       PRES   REMARKS
TUSCALOOSA     MOCLDY    69  66  90 N5        29.98R
$$

ALZ015-024>027-033>036-040>044-191200-
CENTRAL ALABAMA

CITY           SKY/WX    TMP DP  RH WIND       PRES   REMARKS
BIRMINGHAM     CLOUDY    71  64  78 E6        30.01R
MONTGOMERY     CLEAR     68  64  87 CALM      29.98R
SHELBY CO ARPT CLOUDY    71  65  81 CALM      29.99R
MAXWELL AFB    MOCLDY    69  68  95 NE5       29.98R
GREENVILLE     FAIR      66  62  87 CALM      29.96R
$$

ALZ019-021-028-029-037-038-045>048-191200-
EAST CENTRAL ALABAMA

CITY           SKY/WX    TMP DP  RH WIND       PRES   REMARKS
ANNISTON       MOCLDY    69  65  86 NE5       30.02R
ALEXANDER CITY PTCLDY    69  66  90 CALM      30.01R
AUBURN         PTCLDY    68  63  83 E7        30.04R
$$

ALZ051>064-191200-
SOUTHWEST ALABAMA

CITY           SKY/WX    TMP DP  RH WIND       PRES   REMARKS
MOBILE         CLOUDY    71  70  96 CALM      29.94R
BROOKLEY FIELD CLOUDY    74  72  93 N3        29.95R
EVERGREEN      CLOUDY    69  65  86 CALM      29.96R
$$

ALZ049-050-065>069-191200-
SOUTHEAST ALABAMA

CITY           SKY/WX    TMP DP  RH WIND       PRES   REMARKS
DOTHAN         CLOUDY    68  66  93 CALM      30.01R
OZARK          CLOUDY    69  65  88 NE2       29.97R
TROY           PTCLDY    66  63  90 CALM      29.98R
EUFAULA        FAIR      71  67  87 CALM      29.97S
$$




U.S. Dept. of Commerce
NOAA National Weather Service
1325 East West Highway
Silver Spring, MD 20910
E-mail: w-nws.webmaster@noaa.gov
Page last modified: May 16, 2007
NATIONAL WEATHER SERVICE: for Safety, for Work, for Fun - FOR LIFE